User: anonymous   Login
Location: *
(44.1392°N, 4.8079°E)
Time: 23:56:58
(UTC+00:00)
Language:

Cosmos 1242 Rocket - Orbit

View from above orbital plane
View from above orbital plane
View from above satellite
View from above satellite

Ground track
Ground track

The orbit data is extracted from the following two-line orbital elements,

1 12155U 81008B   21271.78572551  .00002726  00000-0  81020-4 0  9996
2 12155  81.1646   0.6108 0027764  23.7400 336.5112 15.33988966232050
Epoch (UTC): 28 September 2021 18:51:26
Eccentricity: 0.0027764
inclination: 81.1646°
perigee height: 445 km
apogee height: 483 km
right ascension of ascending node: 0.6108°
argument of perigee: 23.7400°
revolutions per day: 15.33988966
mean anomaly at epoch: 336.5112°
orbit number at epoch: 23205

The dashed part of the orbit path shows where the satellite is in the earth's shadow,  

DLR